Flag for Brazil Weather past 2 weeks in Santarém, Para, Brazil

Now
82 °F

Passing clouds.


Feels Like: 88 °F
Forecast: 75 / 94 °F
Wind: 9 mph from Southeast

Location: Santarem-Aeroporto

Current Time: Dec 20, 2014 at 2:35:20 AM

Latest Report: Dec 20, 2014 at 2:00 AM


Visibility: N/A

Pressure: 29.80 "Hg

Humidity: 74%

Dew point: 73 °F

Location of SantarémLocation

Historic Weather in Santarém — Graph

°F

Santarém temperature yesterday

Maximum temperature yesterday: 91 °F (at 3:00 PM)
Minimum temperature yesterday: 73 °F (at 12:00 AM)
Average temperature yesterday: 82 °F

Past Weeks' High & Low Weather Summary

 TemperatureHumidityPressure
High95 °F (Dec 17, 3:00 PM)100% (Dec 12, 11:00 PM)29.95 "Hg (Dec 12, 11:00 PM)
Low72 °F (Dec 13, 3:00 AM)44% (Dec 11, 3:00 PM)29.65 "Hg (Dec 9, 7:00 PM)
Average84 °F73%29.81 "Hg
* Reported Dec 5 1:00 AM — Dec 20 1:00 AM, Santarém, Weather by CustomWeather, © 2014

Note: Actual official high and low records may vary slightly from our data, if they occured in-between our weather recording intervals... More about our weather records

Advertising

Santarém weather history for previous 24 hours

 ConditionsComfort  
Time TempWeatherWind HumidityBarometerVisibility
1:00 AM
Dec 20
84 °FPassing clouds.9 mph70%29.83 "HgN/A
12:00 AM82 °FClear.10 mph84%29.83 "Hg10 mi
11:00 PM
Dec 19
84 °FClear.8 mph74%29.83 "Hg10 mi
10:00 PM84 °FClear.7 mph79%29.83 "Hg10 mi
9:00 PM84 °FClear.5 mph74%29.80 "Hg10 mi
8:00 PM84 °FClear.8 mph74%29.77 "Hg10 mi
7:00 PM84 °FScattered clouds.8 mph70%29.74 "HgN/A
6:00 PM88 °FPassing clouds.12 mph62%29.71 "HgN/A
5:00 PM90 °FPassing clouds.12 mph55%29.71 "HgN/A
4:00 PM91 °FPassing clouds.15 mph52%29.71 "HgN/A
3:00 PM91 °FPassing clouds.17 mph52%29.74 "HgN/A
2:00 PM90 °FPassing clouds.17 mph59%29.80 "HgN/A
1:00 PM90 °FPassing clouds.17 mph59%29.83 "HgN/A
12:00 PM88 °FScattered clouds.12 mph66%29.83 "HgN/A
11:00 AM86 °FScattered clouds.9 mph70%29.86 "HgN/A
10:00 AM84 °FPassing clouds.9 mph74%29.86 "HgN/A
9:00 AM82 °FSunny.10 mph79%29.83 "Hg10 mi
8:00 AM79 °FSunny.2 mph89%29.83 "Hg10 mi
7:00 AM73 °FClear.No wind100%29.80 "Hg10 mi
6:00 AM73 °FClear.No wind100%29.77 "Hg10 mi
5:00 AM75 °FClear.3 mph94%29.77 "Hg10 mi
4:00 AM77 °FPassing clouds.5 mph94%29.77 "HgN/A
3:00 AM77 °FPartly cloudy.5 mph94%29.80 "HgN/A
2:00 AM75 °FLight rain. Mostly cloudy.2 mph100%29.80 "HgN/A
Weather by CustomWeather, © 2014

See weather overviewHow to use our weather pages